RH
84 87 88 85 80 80 84 82 83 81 80 80 80 78 74 88 91 98 95 100 100 96 82 68 68 86 88 86 92 88 93 97 99 99 97 95 97 92 92 79 84 84 85 97 84 94 75 55 54 61 54 59 64 66
89 91 88 84 85 82 83 84 85 84 82 82 79 76 74 88 91 95 95 86 100 100 89 82 70 64 66 68 88 91 86 86 90 97 90 87 95 94 90 90 85 94 82 83 80 77 59 59 58 56 61 65 65 69
91 91 84 87 84 83 84 84 82 81 82 82 80 75 79 89 91 95 97 96 99 98 90 88 83 76 67 64 64 88 94 85 94 96 96 92 91 91 97 95 82 80 79 83 75 63 68 62 55 62 69 72 78 80
92 89 85 86 84 82 79 80 83 84 84 83 78 77 85 88 92 93 93 87 99 97 97 86 84 83 82 79 76 76 90 96 98 99 99 95 88 80 86 82 84 78 75 77 78 71 68 61 58 71 80 78 76 76
94 89 89 86 85 82 81 82 80 80 78 76 76 78 84 87 88 90 79 88 95 100 99 96 84 92 92 88 91 93 94 96 97 99 98 97 89 84 90 85 90 86 79 80 78 65 62 59 72 73 75 77 72 72
94 88 89 86 85 83 79 76 74 73 72 74 76 74 76 80 86 88 97 100 100 100 99 100 89 93 99 98 96 97 97 97 97 98 98 89 84 82 93 90 65 73 70 65 62 61 75 77 74 70 78 76 73 72
93 88 88 88 86 85 82 79 77 75 73 74 79 78 80 82 85 93 91 97 91 94 100 99 98 89 94 92 95 98 98 98 98 94 99 97 93 91 94 96 65 66 63 61 64 66 67 66 72 76 75 76 74 75
93 84 90 89 88 86 84 81 78 75 75 82 83 84 90 96 95 96 69 77 78 100 99 100 99 94 89 98 99 97 99 99 99 96 96 98 92 93 98 82 74 65 69 71 69 66 63 79 82 84 78 70 73 74
93 84 91 90 89 88 86 83 77 74 80 84 88 94 97 94 98 94 97 99 83 99 100 99 100 88 90 95 95 98 98 99 96 99 97 97 93 98 81 77 74 75 70 79 86 83 80 81 85 84 78 73 76 84
94 83 90 92 91 89 88 83 77 78 80 81 86 93 99 98 82 94 100 100 100 100 99 99 92 93 96 96 98 97 97 99 100 96 93 99 98 78 74 72 67 74 82 79 85 94 91 89 88 81 71 70 73 81
91 86 89 91 93 92 86 78 80 82 77 90 98 100 92 82 99 99 100 98 100 100 98 95 92 96 92 96 95 93 99 99 98 90 95 84 98 89 83 82 80 79 77 73 66 76 68 70 77 78 80 79 78 79
94 92 92 91 90 91 83 82 85 85 86 93 99 98 99 99 100 99 99 100 100 96 96 98 95 89 95 89 91 93 96 96 99 92 97 96 92 80 83 86 82 82 78 71 71 75 74 71 69 73 76 77 81 74
94 94 95 94 93 84 90 89 86 88 91 89 98 100 100 99 98 98 98 99 94 100 100 99 98 90 89 89 94 92 91 88 88 98 97 93 86 79 85 90 90 84 78 77 78 74 71 73 71 71 82 78 71 67
93 95 96 95 89 88 94 89 90 87 90 98 100 96 98 98 98 99 99 99 95 100 100 97 96 94 88 93 93 96 93 89 97 99 92 90 74 77 90 91 89 86 79 78 76 73 73 75 82 81 80 74 71 75
91 91 93 78 74 95 93 89 83 90 98 96 98 96 98 100 99 100 100 100 96 99 98 92 94 80 94 91 89 93 98 98 96 89 88 90 84 96 94 91 90 87 82 81 76 77 82 82 87 90 84 78 76 75
94 86 56 66 84 93 88 82 83 95 99 99 99 97 97 97 98 98 97 99 97 99 96 96 91 91 86 93 98 99 96 94 81 92 92 97 91 91 91 89 86 81 77 77 78 78 81 82 86 91 86 79 74 69
87 84 69 77 94 90 79 82 88 98 97 91 96 100 99 99 99 93 100 97 86 98 100 95 90 80 90 98 98 90 88 83 91 92 98 98 96 89 89 85 81 78 78 78 77 80 83 83 80 77 79 75 69 66
84 86 90 94 92 74 77 77 95 94 90 95 100 98 95 93 87 86 98 97 99 100 96 93 87 100 93 90 90 88 94 98 99 99 98 92 88 86 82 84 82 80 81 80 80 80 80 79 78 80 82 76 70 67
93 96 94 77 76 84 90 83 93 93 93 94 82 92 89 93 90 87 88 95 98 98 100 99 94 94 91 94 92 95 99 100 99 96 91 85 84 86 87 87 85 85 84 83 77 74 74 70 76 73 68 64 66 65
93 84 76 57 76 81 90 98 94 89 91 96 94 97 93 100 92 93 92 98 100 100 100 99 93 85 88 90 97 97 97 93 94 93 93 92 92 89 89 84 81 82 81 78 76 72 72 70 68 66 64 63 61 64
80 79 63 60 87 85 88 91 96 95 90 89 84 99 98 98 92 95 98 100 99 100 99 98 98 93 90 94 90 93 93 94 92 88 89 99 94 91 92 88 79 73 72 71 69 69 67 68 68 66 67 63 59 56
75 73 64 66 84 87 96 96 99 97 96 88 98 100 99 99 100 98 98 99 97 96 94 94 94 95 93 89 92 87 88 87 83 84 84 86 94 94 91 84 76 82 78 74 73 74 79 82 73 64 60 62 56 59
79 67 60 61 70 71 68 87 95 99 99 100 100 97 98 100 97 97 98 97 95 94 93 93 94 95 95 95 90 90 86 85 92 93 88 91 89 85 86 82 80 85 89 85 79 80 82 76 73 66 67 63 63 66
69 72 68 69 78 64 76 89 88 99 99 97 100 97 90 99 96 100 98 98 93 93 92 94 93 91 94 98 97 97 90 86 91 90 86 86 92 93 84 82 82 78 80 82 79 81 82 77 74 71 69 70 67 58
72 65 72 60 88 76 78 89 100 95 100 100 99 100 95 99 99 100 99 97 96 93 94 92 92 92 94 94 95 97 97 85 86 91 86 84 86 85 85 83 83 82 79 83 83 80 83 80 74 72 68 63 57 54
73 70 80 72 80 71 84 82 98 95 99 100 100 96 100 98 99 96 96 96 97 95 94 94 94 92 89 92 93 94 96 95 84 90 89 82 79 83 89 89 90 88 81 84 84 85 81 77 74 68 65 67 63 50
79 75 78 70 83 86 93 89 84 95 100 100 99 98 100 100 99 89 95 96 98 90 88 96 96 92 91 90 94 96 96 98 97 96 96 94 92 91 92 89 88 87 82 85 85 78 75 74 70 67 67 66 50 40
83 82 87 96 97 96 84 97 100 99 94 91 94 99 100 93 88 94 94 82 80 86 95 96 95 98 98 96 96 96 96 97 96 96 96 97 97 97 97 96 90 93 88 82 71 66 67 69 59 57 56 51 51 47
97 93 90 100 100 100 98 85 86 92 87 94 93 95 94 92 96 97 76 78 89 97 100 95 90 95 95 96 96 96 96 97 94 95 93 93 94 96 97 97 96 96 83 85 84 94 68 47 44 44 40 43 47 48
98 94 98 100 95 90 89 95 100 98 95 90 88 96 95 96 83 80 85 89 97 98 95 99 100 98 96 96 96 96 96 96 97 93 91 91 92 99 97 97 98 96 96 95 89 81 82 66 62 43 46 52 51 46
97 97 100 99 96 98 99 96 98 92 96 100 100 100 97 97 86 90 93 93 98 96 99 97 94 96 96 96 96 96 95 96 97 96 95 95 97 96 97 99 96 95 96 88 84 75 64 45 44 49 50 47 52 44
98 100 100 100 100 98 98 100 100 100 100 100 100 100 100 100 99 97 91 92 93 95 93 95 95 95 95 96 96 96 96 95 96 96 95 96 96 97 96 96 95 95 75 65 56 45 38 42 46 45 48 49 45 44
99 100 100 100 100 100 99 99 100 100 100 100 100 100 100 99 97 94 92 95 95 96 96 96 96 96 96 95 95 96 96 96 97 98 98 98 97 96 96 91 67 57 52 44 42 42 43 44 46 44 42 42 43 46
Wind_Speed
24 25 28 30 29 29 27 24 24 21 22 22 21 22 24 25 24 26 15 10 3 2 1 2 4 5 3 3 3 2 2 2 2 4 4 3 2 4 2 3 4 5 4 3 1 2 3 2 3 2 3 5 3 3
23 25 28 29 28 27 25 23 23 21 20 22 21 22 22 24 23 22 8 19 11 1 2 1 1 1 4 5 4 4 1 2 2 3 4 2 3 2 3 3 2 3 5 3 6 5 3 3 4 4 3 2 2 3
23 25 26 27 26 25 23 22 21 21 21 20 22 22 22 23 22 20 15 17 5 1 2 0 3 4 7 6 6 3 2 3 3 0 1 3 3 4 3 5 2 4 4 2 2 3 4 4 2 3 4 3 2 5
23 24 24 24 24 22 22 22 23 22 20 21 22 22 23 23 23 21 15 17 8 2 1 1 2 0 2 7 9 4 4 2 1 1 2 3 3 3 3 2 3 4 2 2 4 6 5 4 2 4 5 7 11 11
22 22 22 22 22 22 22 22 22 22 22 22 22 22 22 22 24 27 22 12 9 2 1 1 1 1 1 3 5 4 3 2 2 2 3 3 2 2 1 1 3 4 6 4 4 4 3 2 5 6 6 6 9 14
21 20 21 21 22 22 21 21 22 24 24 24 24 25 24 23 22 18 2 4 3 3 2 2 1 2 1 3 4 4 3 2 2 1 2 2 2 3 3 3 5 6 3 3 3 3 4 4 5 3 7 6 8 9
20 19 20 20 22 22 22 23 24 25 25 26 27 27 26 23 17 5 4 3 9 10 1 2 2 1 4 3 2 2 3 2 2 2 2 2 1 2 2 4 4 4 7 4 3 6 4 3 4 6 11 11 13 12
19 19 19 20 21 22 23 24 25 26 27 30 31 30 24 17 13 9 15 12 11 5 1 1 2 1 5 2 2 2 2 2 3 2 2 1 1 1 4 8 5 3 5 5 4 2 2 9 8 8 9 13 14 11
19 19 19 20 20 22 24 25 25 26 32 34 27 12 2 4 3 4 9 4 15 3 2 2 2 2 1 1 0 1 0 2 1 2 2 1 2 5 8 6 5 8 7 8 5 7 8 10 10 9 10 10 15 10
19 18 19 19 20 22 24 24 23 29 32 23 10 5 1 1 16 13 5 3 2 2 2 2 2 2 2 1 0 0 0 1 1 1 2 2 4 8 6 6 3 6 9 12 10 5 7 8 12 12 9 9 11 11
18 18 19 20 20 22 23 20 24 27 18 9 4 2 12 15 4 2 1 3 2 1 3 3 4 3 2 2 2 0 1 1 1 3 1 3 4 3 6 5 4 7 10 5 3 6 6 11 14 12 10 9 11 12
18 18 18 19 20 22 18 21 23 22 14 9 12 10 6 3 2 3 2 1 2 4 1 2 2 2 1 1 2 1 2 1 3 3 1 3 4 3 4 4 2 6 8 5 3 9 12 14 12 13 12 12 11 19
17 19 16 17 19 16 21 21 22 19 11 2 1 2 2 2 2 2 4 1 2 1 3 2 1 2 1 1 2 2 1 3 1 1 3 4 3 3 2 1 4 5 6 6 8 8 12 12 17 18 13 18 22 21
17 19 18 18 15 18 22 20 18 8 2 2 2 2 1 2 2 2 1 2 2 3 1 2 2 2 1 3 1 3 0 1 2 2 5 3 3 2 2 2 4 5 6 8 9 11 13 14 13 18 20 21 23 20
16 19 19 9 15 23 22 19 8 1 1 1 1 2 2 2 2 2 2 2 2 2 2 2 2 2 1 3 1 2 1 3 5 5 3 3 3 1 3 3 6 7 7 8 8 11 12 15 14 16 18 23 26 25
16 16 1 12 22 21 20 7 3 2 1 0 0 2 2 1 3 3 3 2 2 1 1 1 2 2 3 4 3 7 6 6 4 3 3 1 2 2 3 5 6 7 9 10 10 12 16 16 15 18 23 22 23 27
13 6 8 21 21 19 7 4 2 2 1 2 2 2 1 2 3 3 2 2 3 1 2 2 4 8 2 2 3 5 5 3 3 3 2 2 2 5 5 6 7 8 10 11 14 17 19 23 25 24 14 16 24 25
10 13 16 18 17 12 1 2 1 1 1 2 2 3 1 2 4 5 3 2 2 2 1 2 2 2 5 5 4 4 2 2 1 1 1 1 3 5 5 7 7 10 10 14 18 19 23 21 15 12 21 25 27 26
13 14 14 12 9 3 2 2 2 1 2 2 4 3 3 4 4 5 7 6 4 3 3 2 3 4 4 3 3 3 2 2 2 2 2 2 3 6 7 10 12 12 14 17 19 15 16 17 20 22 23 22 19 19
13 10 7 6 2 1 2 3 2 2 2 3 3 3 4 3 3 3 5 4 2 2 4 3 3 1 2 2 2 2 2 3 3 2 2 2 3 7 6 8 8 15 16 19 19 22 23 20 18 20 22 24 23 18
7 2 4 1 2 0 1 2 2 2 2 2 2 3 4 3 3 2 2 1 3 3 2 1 2 4 5 4 5 3 3 4 4 3 4 3 3 7 8 13 16 15 12 11 9 14 17 17 20 22 24 22 25 27
3 3 0 1 2 2 0 1 1 2 1 2 3 2 3 3 3 1 3 3 1 2 3 4 5 6 7 7 5 7 3 5 4 5 9 15 6 5 6 10 11 6 7 11 14 14 18 21 26 27 28 25 27 27
2 1 2 2 3 3 4 2 2 1 1 3 2 2 3 3 3 2 1 0 1 2 3 3 8 12 10 12 10 4 2 5 3 4 5 5 11 12 12 13 16 12 8 12 17 21 22 24 23 27 26 27 27 23
2 3 2 1 2 4 1 2 1 2 3 3 3 4 4 3 3 2 3 0 1 3 4 7 7 7 6 4 2 2 3 6 6 6 10 10 7 6 11 13 16 16 16 22 23 24 23 24 26 25 25 26 23 24
4 3 3 3 2 3 2 3 4 3 1 1 0 4 3 2 2 2 3 2 2 2 3 5 5 4 4 5 5 3 4 5 4 6 7 13 16 16 14 14 17 19 25 29 22 23 22 23 24 25 25 25 26 25
2 4 5 5 2 4 5 3 3 5 2 1 4 3 3 2 2 5 3 2 2 2 2 5 5 6 6 5 6 6 6 2 10 3 7 16 16 13 9 9 9 10 18 22 32 28 24 23 25 26 24 22 22 25
4 5 3 2 2 4 2 2 2 3 3 4 3 2 2 1 5 3 1 2 2 3 10 13 11 6 7 8 15 15 11 5 5 7 15 16 17 20 23 17 11 17 26 28 27 30 32 29 27 27 26 23 22 21
4 4 6 4 2 1 4 2 4 6 4 3 3 1 5 6 4 3 3 3 9 17 19 18 18 18 16 16 15 11 3 14 19 22 22 18 18 20 23 24 27 31 31 31 32 33 33 33 33 31 28 25 20 16
3 2 4 2 1 1 5 6 5 3 2 3 4 3 4 3 2 2 4 9 16 17 10 9 11 11 11 8 8 11 10 14 9 9 11 7 6 10 24 31 30 31 31 29 27 30 31 33 31 30 27 25 21 18
4 3 3 2 5 6 3 3 2 2 1 2 1 2 2 3 5 7 9 12 11 7 13 15 16 11 4 3 2 3 8 10 10 10 10 9 9 23 28 30 33 35 34 33 32 29 28 29 27 27 26 23 19 17
2 3 3 2 3 2 2 1 2 2 2 1 1 2 3 3 5 5 6 12 15 15 13 8 7 6 3 2 2 2 1 3 13 15 21 29 28 29 30 34 37 36 35 38 36 34 31 31 29 26 23 20 16 13
2 3 4 3 3 2 2 2 1 1 2 1 2 1 3 3 3 2 3 8 6 5 7 8 6 6 6 3 1 4 9 17 23 30 30 30 30 34 39 40 39 38 38 37 35 33 32 30 27 24 21 17 14 11
3 2 2 2 2 1 1 3 3 4 1 1 2 2 2 2 5 3 1 3 3 6 7 6 6 6 6 7 10 12 18 23 26 30 31 30 37 40 39 38 37 37 36 35 33 31 28 26 23 20 17 15 12 10
Wind_Direction
331 337 336 334 333 335 334 331 331 335 334 335 337 338 340 342 348 350 303 4 281 312 266 184 159 128 111 168 162 165 145 178 182 224 203 183 181 236 281 236 198 194 167 232 215 272 333 32 74 250 252 302 318 102
330 336 335 334 335 337 337 334 332 334 332 334 336 339 339 339 345 352 321 330 349 299 309 291 249 136 179 174 140 193 177 129 233 245 206 155 194 194 190 277 140 235 194 194 181 217 249 234 252 296 278 261 288 115
330 335 334 334 334 337 341 340 338 336 336 334 334 335 333 335 342 343 323 324 337 247 279 305 215 214 221 205 193 151 234 175 234 125 227 228 211 134 192 242 219 230 186 212 0 278 252 267 279 357 2 64 45 97
330 332 332 334 334 336 338 336 333 332 334 334 331 331 332 334 335 332 315 298 291 278 194 288 54 251 250 224 218 204 136 111 237 247 252 218 202 180 214 254 220 215 142 197 264 279 282 243 161 130 84 83 88 73
328 330 330 330 330 333 336 338 336 333 331 330 327 325 325 327 328 323 308 276 237 303 324 332 66 215 251 192 188 171 150 183 205 239 225 225 150 135 213 29 251 190 189 174 226 231 166 291 128 135 113 112 113 116
326 328 328 327 327 330 334 334 331 327 327 326 323 317 315 318 328 336 296 84 89 1 323 314 102 153 113 174 192 202 188 220 231 244 250 217 173 153 192 220 255 214 209 190 235 113 88 103 104 90 111 110 101 101
323 325 325 323 324 326 330 332 329 325 324 323 317 312 306 303 299 246 274 297 13 342 247 310 292 86 160 178 213 207 183 215 213 244 250 284 202 187 219 231 253 211 213 198 161 125 74 204 154 115 112 105 96 85
323 322 323 321 322 323 326 329 328 325 323 321 318 309 296 285 276 265 274 274 242 254 198 235 271 309 177 199 221 184 211 190 180 278 283 268 316 250 256 242 247 140 135 139 175 343 117 113 101 100 114 119 106 106
319 321 321 320 322 322 324 326 327 327 326 325 324 328 96 157 215 262 312 219 175 231 205 162 181 247 161 259 156 216 187 229 157 234 222 192 186 225 229 228 220 190 184 164 95 88 106 121 126 125 125 119 116 116
318 320 321 320 323 322 324 326 328 330 329 330 359 358 236 114 318 294 190 158 156 209 242 220 144 198 184 207 234 304 9 322 239 235 324 223 252 248 241 220 200 173 143 142 120 113 120 133 151 149 146 133 131 127
316 316 318 321 324 323 324 324 329 334 338 352 357 324 305 327 309 230 158 160 154 256 201 222 177 162 239 162 195 300 190 350 314 274 271 262 271 262 340 299 197 155 162 179 99 108 136 144 149 137 121 112 116 118
313 315 315 320 324 324 324 325 329 334 316 290 294 303 302 316 281 179 151 306 154 223 193 173 191 167 190 276 122 82 124 96 256 325 298 261 256 288 338 360 86 146 149 141 125 132 130 133 138 128 125 121 109 117
309 312 316 322 324 320 329 330 329 326 319 358 38 295 309 268 317 118 149 189 209 209 193 173 137 136 96 46 67 87 72 245 6 255 244 236 260 292 316 23 93 117 111 101 98 102 114 113 121 127 121 120 121 119
308 312 316 319 319 325 329 329 333 338 326 28 357 330 165 290 319 6 346 299 342 300 241 132 100 154 147 61 120 136 295 334 269 253 241 253 253 315 72 95 120 118 102 103 111 119 118 115 105 110 118 126 123 119
308 311 312 316 330 331 329 326 342 6 18 34 11 306 312 27 281 282 262 300 257 268 272 77 45 117 83 100 78 132 66 251 223 234 234 246 259 189 129 115 120 112 110 104 115 115 115 116 112 106 112 120 121 122
310 316 138 335 336 334 333 347 4 89 38 8 337 5 318 320 336 327 326 281 256 273 323 46 137 149 205 145 137 210 153 225 244 221 242 253 183 140 134 125 118 119 121 119 120 120 119 121 120 114 109 113 121 127
305 247 312 329 334 332 352 331 332 64 303 266 237 260 285 250 262 289 317 282 328 324 235 167 189 212 68 92 251 190 204 222 214 260 287 263 201 158 136 121 116 117 116 119 118 115 114 118 119 114 106 105 118 125
266 289 317 326 329 331 1 341 80 46 278 289 272 266 276 227 278 283 265 293 316 281 191 249 125 153 201 185 247 240 233 233 279 235 265 255 158 129 119 121 116 122 119 118 121 124 127 125 116 113 116 121 115 116
277 298 306 316 329 317 61 324 349 267 242 289 285 289 269 271 260 259 274 276 253 271 294 218 240 212 225 220 241 274 237 227 199 154 64 38 126 117 105 97 103 110 119 126 129 125 118 119 125 129 128 125 117 122
287 292 292 327 307 108 14 292 345 237 247 250 290 285 283 247 274 274 277 272 227 241 220 228 239 295 284 304 244 257 235 191 148 101 82 62 98 111 117 125 123 118 107 105 107 115 112 105 112 124 128 131 129 129
294 215 330 28 138 319 161 245 256 231 287 262 301 329 287 330 271 255 268 354 223 228 237 36 341 326 313 279 274 260 263 191 190 185 176 146 147 123 111 114 124 130 132 134 129 130 124 126 130 130 130 126 133 139
221 296 335 111 85 28 148 201 241 256 248 272 294 325 271 292 282 309 308 247 347 5 347 337 331 327 319 311 310 299 273 202 161 123 115 131 141 136 144 144 136 129 131 136 136 132 126 128 134 135 131 129 135 132
240 133 93 56 54 50 248 34 80 322 192 291 357 355 290 289 242 345 265 214 46 20 332 310 312 299 285 294 304 332 208 160 144 134 140 120 116 126 137 138 140 137 124 111 127 130 128 133 132 129 129 131 127 123
138 65 125 159 103 240 15 3 347 23 15 21 40 302 297 248 321 37 250 39 0 333 347 342 334 329 328 318 321 316 300 172 126 108 137 133 124 108 130 130 127 133 134 130 130 129 129 129 134 131 132 129 131 131
81 291 110 266 317 58 55 360 342 52 236 263 312 293 290 1 304 283 230 266 298 324 332 334 332 337 312 308 314 295 310 181 152 137 126 133 122 112 105 106 111 129 141 131 132 132 130 133 133 135 138 139 137 140
211 239 151 202 241 152 185 162 195 199 163 307 237 273 7 3 320 255 238 225 247 263 316 321 315 314 306 296 313 314 320 290 142 115 132 152 156 149 142 142 136 138 158 151 144 138 136 136 136 137 135 140 143 145
232 250 218 213 130 112 81 28 47 122 156 205 252 354 47 311 254 253 269 201 222 248 299 289 276 268 270 285 293 293 292 212 181 151 152 158 158 155 154 152 147 148 160 155 149 147 143 141 139 139 141 150 155 154
210 178 179 196 109 87 144 136 168 199 215 201 119 241 192 204 248 241 224 247 293 315 306 294 285 270 263 270 279 275 206 142 134 125 117 114 138 150 154 155 156 155 159 163 158 153 148 146 146 147 149 146 145 146
204 188 122 111 85 168 209 189 211 218 162 144 164 225 242 233 230 232 275 302 315 315 296 299 301 299 290 279 251 224 206 174 155 150 138 137 125 107 131 133 137 138 145 143 150 154 155 153 151 149 147 144 140 137
205 151 109 129 165 216 235 171 202 208 158 158 227 330 297 281 258 258 279 311 318 299 294 293 289 289 277 260 243 177 205 225 231 179 158 155 142 136 133 133 131 136 139 132 123 124 125 131 133 137 137 135 136 134
124 96 74 127 220 248 231 294 337 44 40 9 318 176 250 289 305 255 273 312 310 310 299 297 318 342 310 245 222 184 121 129 162 166 152 136 135 133 131 131 133 131 129 131 136 136 137 141 142 141 139 136 135 133
103 157 151 177 256 286 29 74 135 123 334 19 268 335 319 355 281 275 310 345 354 336 344 11 3 346 354 360 170 178 152 136 132 134 132 131 128 130 131 132 136 138 142 145 144 142 144 143 143 143 140 135 130 124
76 76 58 80 43 353 264 92 28 332 333 275 265 213 221 216 248 261 292 2 348 323 342 19 34 54 75 103 108 114 131 131 131 131 130 130 134 135 134 137 142 144 143 139 138 141 141 141 139 137 134 131 127 121